Weather Roundup
Issued by NWS Chicago, IL

Home | Current Version | Previous Version | Graphics & Text | Print | Product List | Glossary On
Versions: 1 2 3 4 5 6 7 8 9 10 11 12 13 14 15 16 17 18 19 20 21 22 23 24 25 26 27 28 29 30 31 32 33 34 35 36 37 38 39 40 41 42 43 44 45 46 47 48 49 50
000
NZUS59 KLOT 231206
HRRLOT

CHICAGO AREA WEATHER ROUNDUP
NATIONAL WEATHER SERVICE CHICAGO/ROMEOVILLE IL
700 AM CDT TUE SEP 23 2014

NOTE: "FAIR" INDICATES FEW OR NO CLOUDS BELOW 12,000 FEET WITH NO
SIGNIFICANT WEATHER AND/OR OBSTRUCTIONS TO VISIBILITY.

* THESE STATIONS ARE NOT UNDER NWS QUALITY CONTROL. THEY ALSO MAY NOT
  REPORT WEATHER SUCH AS PRECIPITATION OR FOG.

ILZ005-006-012>014-019>023-231300-
NORTHEAST ILLINOIS

CITY           SKY/WX    TMP DP  RH WIND       PRES   REMARKS
OHARE          CLEAR     52  43  71 CALM      30.31R
6HR MIN TEMP:  51; 6HR MAX TEMP:  54;

MIDWAY         PTCLDY    50  42  74 SW3       30.32R
6HR MIN TEMP:  50; 6HR MAX TEMP:  55;

AURORA         CLEAR     43  40  89 CALM      30.33R
6HR MIN TEMP:  41; 6HR MAX TEMP:  47;

LANSING*       CLEAR     44  42  90 S3        30.33R
JOLIET*        CLEAR     43  42  96 CALM      30.34R
WAUKEGAN       CLEAR     48  44  86 CALM      30.30R
6HR MIN TEMP:  47; 6HR MAX TEMP:  52;

DUPAGE AIRPORT CLEAR     46  44  93 S3        30.32R
6HR MIN TEMP:  46; 6HR MAX TEMP:  50;

WHEELING       CLEAR     49  43  80 S3        30.33R
6HR MIN TEMP:  47; 6HR MAX TEMP:  51;

KANKAKEE*      FOG       43  42  97 CALM      30.34R VSB 1/2
MORRIS*        CLEAR     44  44 100 CALM      30.32R FOG
LEWIS AIRPORT* CLEAR     44  43  94 CALM      30.33R
NORTHERLY IS     N/A     55  42  61 W10         N/A
$$

WIZ051-052-058>065-066-070>072-231300-
SOUTHEAST WISCONSIN

CITY           SKY/WX    TMP DP  RH WIND       PRES   REMARKS
MILWAUKEE      CLEAR     54  45  71 CALM      30.30R
6HR MIN TEMP:  53; 6HR MAX TEMP:  55;

KENOSHA*       CLEAR     47  44  90 SW6       30.30S
RACINE*        CLEAR     51  45  79 W5        30.31R
BURLINGTON     CLEAR     41  41 100 CALM      30.31R FOG
WAUKESHA       CLEAR     45  43  93 CALM      30.30R
WEST BEND      CLEAR     43  41  93 CALM      30.29R
$$

INZ001>003-010>013-019-020-231300-
NORTHWEST INDIANA

CITY           SKY/WX    TMP DP  RH WIND       PRES   REMARKS
GARY*          CLEAR     45  43  93 S3        30.33R
MICHIGAN CITY* NOT AVBL
RENSSELAER*    NOT AVBL
VALPARAISO     CLEAR     43  42  97 CALM      30.34R
$$

LMZ740>746-231300-
SOUTHERN LAKE MICHIGAN

STATION/POSITION TIME  SKY/WX   TEMP WIND        PRES    VSBY
                                AIR  DIR/SP/G
                 (UTC)          (F)  (DEG/KT/KT) (MB)    (MI)
HARRISON CRIB    NOT AVBL
BURNHAM HARBOR   1200            55  250/  8/ 11   N/A
CALUMET HARBOR   1200            51  220/  4/  6 1025.4R
BURNS HARBOR     NOT AVBL
MICHIGAN CITY    NOT AVBL
$$

ABBREVIATIONS USED IN REMARKS
   TC - TEMPERATURE IN CELSIUS
  WCI - WIND CHILL INDEX
   HX - HEAT INDEX
  VSB - VISIBILITY
$$


USA.gov is the U.S. government's official web portal to all federal, state and local government web resources and services.